Location: Home
(42.5358°N, 72.7383°W)
Time: 19:49:51
(UTC-05:00)

Transit 4A - Pass Details

Date: 09 December 2021
Orbit: 863 x 981 km, 66.8° (Epoch: 23 January)

Event Time Altitude Azimuth Distance (km) Brightness Sun altitude
Rises 00:35:10 0° 336° (NNW) 3,599 - -67.5°
Reaches altitude 10° 00:38:58 10° 359° (N) 2,677 - -67.2°
Maximum altitude 00:42:28 15° 34° (NNE) 2,337 - -66.8°
Drops below altitude 10° 00:45:59 10° 68° (ENE) 2,710 - -66.4°
Sets 00:49:51 0° 90° (E) 3,668 - -65.9°
